This is the latest recevied weather packets stored in our database for station/object XE2MEM-21. If no packets are shown the sender has not sent any weather packets the latest 10 day(s).
| Time | Temp. | Humidity | Pressure | Rain* | Wind** | Luminosity | Snow |
|---|---|---|---|---|---|---|---|
| 1777964246 | 25° C | 100% | 1006.2 hPa | - | - | - | - |
| 1777963346 | 25° C | 100% | 1006.2 hPa | - | - | - | - |
| 1777962446 | 25° C | 100% | 1006.4 hPa | - | - | - | - |
| 1777961546 | 25° C | 100% | 1006.5 hPa | - | - | - | - |
| 1777960646 | 25° C | 100% | 1006.7 hPa | - | - | - | - |
| 1777959746 | 25° C | 100% | 1006.9 hPa | - | - | - | - |
| 1777958846 | 25° C | 100% | 1007.2 hPa | - | - | - | - |
| 1777957946 | 25° C | 100% | 1007.1 hPa | - | - | - | - |
| 1777957046 | 25.56° C | 100% | 1007.2 hPa | - | - | - | - |
| 1777956146 | 25.56° C | 100% | 1007.7 hPa | - | - | - | - |
| 1777955246 | 25° C | 100% | 1007.5 hPa | - | - | - | - |
| 1777954346 | 25.56° C | 100% | 1007.3 hPa | - | - | - | - |
| 1777953446 | 25.56° C | 100% | 1007.4 hPa | - | - | - | - |
| 1777952545 | 25.56° C | 100% | 1007.4 hPa | - | - | - | - |
| 1777951645 | 25.56° C | 100% | 1007.4 hPa | - | - | - | - |
| 1777950745 | 25.56° C | 100% | 1007.5 hPa | - | - | - | - |
| 1777949844 | 26.11° C | 100% | 1007.2 hPa | - | - | - | - |
| 1777948949 | 26.11° C | 100% | 1007 hPa | - | - | - | - |
| 1777948049 | 26.11° C | 100% | 1006.9 hPa | - | - | - | - |
| 1777947149 | 26.67° C | 100% | 1006.9 hPa | - | - | - | - |
| 1777946249 | 26.67° C | 100% | 1006.6 hPa | - | - | - | - |
| 1777945349 | 26.67° C | 100% | 1006.6 hPa | - | - | - | - |
| 1777944449 | 26.67° C | 100% | 1006.5 hPa | - | - | - | - |
| 1777943549 | 27.22° C | 100% | 1006.5 hPa | - | - | - | - |
| 1777942649 | 27.22° C | 100% | 1006.7 hPa | - | - | - | - |
* Rain since midnight (hover to see other rain measurements)
** Current wind speed in m/s (hover to see current wind gust speed)